CZ-6A DEB

Satellite information

Favourite Embed

Satellite Type and Status

DEBRISIN ORBIT

Key statistics

Satellite CZ-6A DEB at a glance.

Uptime

909

Days in orbit

Revolutions

≈ 14.3

Per day

Orbit

SSO

Sun Synchronous Orbit

Inclination

98.8

Latest

Satellite identification and parameters

Extended collection of information and parameters for CZ-6A DEB.

Object identification

Identified? True

Debris? True

Object name: CZ-6A DEB

International designator: 2022-151NG

Object number (NORAD): 54606

Object ID (CCSDS): 54606

Country: PEOPLES REPUBLIC OF CHINA (PRC)

Current information (Y/N): Y

RCS size: SMALL

Orbital parameters

Period: 100.783 minutes

Inclination: 98.8122 deg

SMA: 7173.836 km

Apoapsis: 842.185 km

Periapsis: 749.217 km

RAAN: 141.8833 deg

Eccentricy: 0.0064797

Argument of periapsis: 64.865 deg

Mean anomaly: 295.9235 deg

Mean motion: 14.28813658 rev/day

Mean motion (dot): 0.00008559 rev/day2

B* drag term: 0.0033337 1/REarth

Two-line elements (TLE)

Creation date: May 8, 2025, 3:01 a.m.

Reference frame: TEME

Reference center: EARTH

Epoch: May 7, 2025, 12:05 a.m. UTC

TLE line 0: 0 CZ-6A DEB

TLE line 1: 1 54606U 22151NG 25127.00370596 .00008559 00000-0 33337-2 0 9997

TLE line 2: 2 54606 98.8122 141.8833 0064797 64.8650 295.9235 14.28813658127813

Live tracking on map

Real-time ground track for satellite CZ-6A DEB.

In-orbit conjunctions

A list of the most updated potential collisions computed for object CZ-6A DEB.

Target Orbit TCA Probability of collision Miss distance Type
METEOR 2-8 DEB LEO 2025-03-09 19:00:52 0.0001190367 162.0 (m) DEBRIS
COSMOS 1023 LEO 2025-02-28 05:35:34 0.0001613839 248.0 (m) PAYLOAD
COSMOS 2263 LEO 2025-01-29 14:53:51 0.0001320152 492.0 (m) PAYLOAD
NOAA 16 DEB SSO 2024-09-26 22:23:55 0.0001326487 810.0 (m) DEBRIS

Associated space launch

Chinese satellite reported for atmospheric/ocean/environmental/spatial parameter research purposes, details TBD.

CZ-6A DEB was lifted into orbit during the mission ‘Long March 6A | Yunhai 3’, on board a Long March 6A space rocket.

The launch took place on Nov. 11, 2022, 10:52 p.m. from Launch Complex 9A.

For more information about the launch, click the button.

Launch to space Long March 6A | Yunhai 3
Long March 6A | Yunhai 3

Agency: N/A

Status: Launch Successful

Launch date: Nov. 11, 2022, 10:52 p.m. UTC

Rocket: Long March 6A

Launch pad: Launch Complex 9A

Location: Taiyuan Satellite Launch Center, People's Republic of China

...

Latest news about this satellite

There are no fresh news available about this satellite. Check back as we update our databases every day.


Newsletter sign-up

Weekly statistics, charts and insights to help you stay on top of the space industry.